{"data":{"norad_id":67834,"epoch":"2026-09-19T15:53:53.224512Z","epoch_age_seconds":138838,"freshness":"FRESH","line1":"1 67834U 26033P   26262.66242158  .00008241  00000+0  30861-3 0  9999","line2":"2 67834  42.9985 251.2477 0002142 264.5338  95.5269 15.27584977 34340","mean_motion":15.27584977,"eccentricity":0.0002142,"inclination_deg":42.9985,"raan_deg":251.2477,"arg_perigee_deg":264.5338,"mean_anomaly_deg":95.5269,"bstar":0.00030861,"rev_number":3434,"period_min":94.266441584677,"perigee_km":481.56453028208,"apogee_km":484.50385602122,"semimajor_km":6861.1711931516,"source":"CELESTRAK","updated_at":"2026-09-20T09:00:43.669735Z"}}